Wind_Speed
17 15 14 13 13 13 13 14 14 12 11 9 7 8 14 10 12 12 13 15 13 13 13 15 14 14 15 15 17 18 18 17 19 25 22 22 21 16 16 14 10 14 22
20 20 13 15 12 15 15 16 14 10 10 14 13 11 10 11 11 14 16 11 12 14 15 14 15 16 16 17 17 18 20 19 17 18 18 17 13 12 14 14 13 14 20
20 26 21 19 15 12 14 12 10 6 7 7 8 12 8 11 9 9 9 11 9 11 11 12 11 12 13 14 15 15 13 11 12 15 17 18 16 12 14 14 15 16 14
19 18 18 15 13 9 10 10 9 11 7 9 10 7 9 6 7 8 8 8 8 9 8 9 8 8 11 13 12 9 8 10 11 13 12 14 12 12 11 11 11 12 12
14 18 14 15 14 14 15 15 18 13 10 10 7 5 4 4 8 7 4 4 6 7 7 7 7 9 9 10 10 9 9 10 11 12 13 13 14 14 15 15 14 15 12
19 20 14 16 19 18 16 15 12 9 8 8 1 3 5 6 9 11 13 11 7 7 8 9 9 9 9 9 9 10 11 11 13 13 14 16 16 15 15 15 14 13 11
13 12 13 19 21 21 15 14 11 8 5 4 5 5 6 8 11 15 16 17 15 14 12 12 12 13 13 13 12 12 13 13 14 16 18 16 16 16 15 12 12 12 11
11 12 14 15 15 13 11 10 8 8 7 5 5 6 7 6 9 12 13 16 16 17 16 14 13 13 12 12 9 12 11 11 12 11 14 17 18 17 17 14 13 10 4
12 12 11 10 10 10 8 11 13 10 8 5 7 8 6 6 6 8 9 12 11 14 17 17 15 15 15 12 8 7 7 11 11 13 15 16 18 18 18 18 16 13 8
12 11 11 12 12 13 14 15 13 9 9 10 10 10 9 7 6 5 3 6 5 8 16 16 16 20 22 21 18 13 10 11 11 14 15 15 16 18 18 23 21 19 17
13 14 15 18 16 14 15 14 12 11 14 12 13 12 11 9 8 4 4 6 4 9 13 16 18 18 20 21 19 18 13 13 14 15 16 14 11 14 20 23 23 21 18
17 16 18 19 17 17 16 13 11 12 14 14 14 13 13 13 12 11 9 5 6 10 10 12 12 13 14 15 14 16 14 12 9 12 16 15 11 13 17 21 24 18 19
20 17 19 18 19 16 13 14 14 14 12 11 10 10 8 7 8 7 7 7 5 4 6 6 10 12 12 11 12 11 13 14 11 15 14 16 17 13 15 18 21 18 17
22 25 21 20 18 17 16 13 12 11 11 9 7 7 5 3 2 6 6 5 5 4 3 4 6 6 9 10 7 10 10 11 11 12 12 14 13 14 15 17 16 17 18
28 23 21 21 21 17 9 8 6 6 8 8 9 10 7 5 1 7 6 5 5 3 1 3 5 8 10 7 8 6 11 11 7 6 10 11 12 12 12 14 14 17 19
26 22 21 21 18 14 14 13 7 5 8 7 10 9 8 4 4 3 3 1 2 3 3 4 4 5 10 8 7 9 14 14 4 2 4 6 8 8 10 10 11 14 16
25 23 20 17 20 16 13 11 8 8 6 7 10 11 8 4 3 2 2 2 5 8 7 6 5 5 4 3 3 8 13 9 6 6 5 3 4 4 6 8 8 11 14
25 19 17 13 14 15 14 9 9 8 6 5 5 8 9 7 4 3 3 0 3 5 4 2 1 2 8 5 5 9 14 12 4 4 5 4 5 5 6 3 4 7 9
23 19 17 14 19 14 16 10 10 9 8 8 8 7 5 7 5 5 3 3 3 3 3 6 7 7 7 5 7 10 11 12 9 5 5 5 3 1 2 5 2 4 4
24 19 16 12 9 16 12 9 11 13 13 7 5 5 4 4 9 3 6 5 2 5 2 8 6 5 4 4 7 6 8 11 10 8 5 5 4 1 2 1 2 3 3
26 22 17 15 9 13 13 13 7 12 10 8 6 7 7 5 1 5 4 6 6 7 6 3 1 5 2 5 8 4 6 9 10 7 6 4 4 3 3 1 1 1 3
27 20 17 18 12 9 12 13 10 12 13 14 9 7 7 3 1 2 6 4 8 11 8 6 5 6 5 6 5 5 6 5 8 8 5 3 4 4 2 2 2 3 3
22 19 15 18 16 10 6 9 5 15 11 8 8 8 8 1 3 4 5 3 2 8 5 8 7 8 8 6 6 8 10 10 11 10 6 3 4 5 4 3 4 4 5
18 22 17 14 23 13 8 6 7 8 7 5 1 2 5 5 2 5 8 6 5 2 2 4 9 10 11 8 9 8 6 7 10 11 11 7 6 5 6 6 6 6 4
13 24 19 17 18 13 11 11 9 5 10 10 6 5 1 5 1 7 7 6 4 7 7 8 11 14 13 16 16 9 5 7 9 10 9 10 6 5 6 7 8 9 8
14 15 16 20 20 13 15 15 8 5 4 6 7 4 3 7 7 8 7 6 5 5 7 8 9 11 12 17 18 14 11 11 11 11 9 8 7 5 4 5 10 11 9
Wind_Direction
222 219 223 233 228 221 220 219 226 226 230 244 268 279 280 318 298 291 303 306 295 296 302 300 296 293 296 293 294 294 296 299 293 294 298 298 297 296 292 296 309 198 237
219 232 236 244 245 236 231 230 234 231 235 243 270 280 293 300 300 281 307 316 292 295 300 293 294 295 299 301 300 304 302 305 310 308 317 319 311 301 302 297 298 292 290
228 229 235 240 243 253 234 231 243 236 241 284 268 309 305 315 320 328 327 325 326 319 311 307 310 311 311 318 322 312 316 316 323 322 325 326 323 323 313 304 288 287 287
219 223 231 237 242 249 236 230 246 222 244 267 280 308 314 334 3 351 326 330 349 350 356 352 337 334 327 326 336 344 326 332 334 337 342 346 346 339 337 326 315 306 310
200 213 229 234 230 226 230 236 220 206 244 265 276 293 9 22 11 353 340 14 11 1 0 355 339 341 344 338 353 360 358 354 3 17 15 10 6 355 347 336 328 328 328
202 214 210 206 209 210 203 187 203 219 235 259 287 79 71 52 38 54 64 69 39 24 25 22 14 359 351 345 349 5 9 19 23 25 16 6 355 350 345 343 336 339 351
209 207 197 197 201 206 212 209 207 226 235 160 103 92 92 71 66 65 67 59 51 51 47 42 35 31 36 43 49 41 36 31 25 19 9 12 10 7 2 5 0 358 355
221 198 202 208 211 212 200 193 211 181 154 124 102 110 100 79 75 76 78 61 49 49 44 37 32 32 33 34 41 52 42 22 33 19 20 18 13 18 18 9 346 349 349
222 199 194 191 192 194 180 168 160 160 150 139 123 118 104 86 96 84 66 64 44 36 34 29 34 35 34 32 32 52 37 35 44 23 23 14 19 24 27 14 21 21 21
171 163 184 194 173 162 159 152 157 163 149 133 117 110 101 95 123 115 78 69 42 34 24 41 49 51 52 49 47 53 70 39 28 23 15 22 25 21 22 23 22 18 15
160 176 168 162 155 159 154 152 150 142 136 126 116 102 97 92 91 122 139 116 72 50 61 61 57 53 48 48 48 44 40 36 33 27 24 31 24 26 30 22 18 17 19
158 154 158 154 157 153 144 144 140 133 135 128 111 101 94 84 79 77 86 101 91 83 68 54 43 38 39 40 43 42 38 31 29 26 23 33 34 36 32 23 17 27 31
157 156 150 153 145 137 132 131 135 138 128 131 125 109 90 71 59 55 54 58 66 82 50 44 37 31 20 33 32 35 37 33 33 32 41 52 42 38 30 19 17 24 27
156 153 151 139 142 139 130 127 133 133 144 155 176 159 121 121 75 15 360 1 10 23 39 32 2 28 34 26 19 17 29 19 18 34 39 48 49 39 26 21 21 31 35
155 157 150 151 147 142 140 152 149 154 181 207 200 196 182 197 319 358 347 333 331 341 17 339 353 12 28 26 30 26 11 352 0 24 36 37 48 44 34 29 41 44 45
162 161 154 158 158 148 146 154 150 170 187 184 193 189 182 188 312 11 13 40 348 325 321 283 23 29 49 60 24 348 354 353 356 29 37 31 36 48 43 41 44 42 40
158 153 151 162 158 151 160 196 186 172 167 203 215 216 229 234 232 199 48 308 324 332 328 332 357 16 13 17 359 4 359 7 13 2 27 38 40 35 36 44 45 41 42
155 164 173 172 177 183 195 194 200 186 151 131 150 170 192 203 200 252 323 38 21 40 64 41 298 341 24 10 6 15 20 15 54 46 27 44 32 55 49 50 39 23 30
168 183 194 208 221 234 208 202 222 203 195 153 125 150 174 185 209 244 258 204 83 118 56 46 26 13 23 49 40 19 28 21 40 40 15 358 50 52 58 77 58 38 27
175 181 193 193 178 178 183 214 223 205 203 196 199 192 178 185 213 233 287 260 205 176 218 8 37 10 360 11 3 30 9 12 10 31 21 16 6 65 147 132 42 9 81
179 186 196 198 202 196 203 208 216 194 207 218 232 237 225 327 256 227 313 260 214 209 234 328 332 343 334 2 5 18 355 356 349 1 355 335 356 332 189 193 347 8 62
184 190 198 201 192 192 210 188 192 218 229 232 223 217 219 279 189 255 315 288 219 221 246 261 304 314 334 333 318 321 355 324 313 339 296 322 305 322 189 251 251 285 222
186 189 190 209 204 191 202 205 178 211 194 215 225 243 231 228 346 316 302 259 180 208 243 258 273 292 321 307 269 286 315 327 309 317 334 237 265 239 248 265 254 240 236
180 195 200 203 201 190 186 215 219 192 160 140 117 134 223 254 216 182 198 291 325 234 243 275 277 285 304 273 294 290 295 338 341 326 302 286 246 250 257 238 243 253 282
190 193 192 158 174 188 203 207 196 206 212 232 249 216 101 50 178 235 288 294 263 222 259 287 289 291 287 280 288 301 251 313 336 344 325 286 261 279 247 248 252 237 234
176 177 194 189 187 194 210 209 201 207 178 173 196 211 266 259 278 284 294 289 270 268 267 267 285 290 307 274 274 275 288 296 300 327 335 319 266 250 283 266 257 262 244
Height
1530 1533 1535 1538 1540 1540 1542 1545 1546 1548 1551 1552 1552 1551 1549 1545 1546 1549 1546 1543 1540 1541 1542 1541 1540 1539 1537 1536 1534 1532 1532 1531 1529 1525 1526 1525 1523 1522 1520 1520 1520 1519 1522
1529 1530 1533 1535 1538 1539 1540 1542 1544 1546 1548 1548 1547 1547 1546 1545 1544 1544 1542 1539 1538 1538 1537 1536 1536 1535 1534 1533 1532 1529 1528 1527 1525 1524 1522 1520 1520 1518 1517 1516 1516 1516 1515
1527 1528 1530 1531 1535 1536 1537 1541 1542 1544 1547 1546 1545 1544 1542 1542 1542 1539 1538 1537 1535 1535 1534 1533 1531 1531 1530 1529 1527 1526 1525 1524 1523 1521 1519 1517 1515 1515 1514 1513 1513 1513 1511
1528 1530 1530 1531 1534 1535 1534 1538 1541 1542 1545 1544 1545 1543 1542 1541 1539 1538 1537 1536 1535 1534 1533 1531 1530 1529 1527 1527 1526 1523 1523 1523 1521 1519 1517 1515 1512 1511 1510 1508 1509 1507 1505
1525 1531 1528 1531 1534 1533 1533 1535 1538 1538 1542 1542 1542 1542 1541 1540 1538 1537 1536 1534 1534 1533 1532 1531 1530 1528 1526 1525 1524 1523 1521 1520 1519 1518 1517 1515 1512 1510 1508 1507 1505 1503 1501
1522 1522 1523 1527 1530 1531 1532 1533 1535 1537 1539 1540 1540 1541 1541 1541 1539 1537 1535 1534 1534 1533 1532 1531 1531 1528 1525 1524 1523 1522 1522 1521 1519 1518 1517 1515 1512 1510 1508 1505 1503 1500 1500
1521 1520 1520 1523 1527 1529 1530 1531 1534 1535 1537 1538 1539 1539 1540 1540 1539 1538 1537 1536 1535 1533 1533 1532 1531 1529 1526 1524 1524 1523 1523 1521 1520 1518 1517 1515 1512 1509 1507 1504 1502 1500 1498
1516 1517 1518 1522 1526 1527 1528 1529 1532 1534 1536 1537 1538 1539 1540 1540 1540 1540 1539 1538 1538 1537 1536 1534 1532 1530 1528 1526 1525 1524 1524 1522 1521 1520 1518 1515 1512 1510 1507 1505 1502 1499 1498
1513 1514 1516 1521 1524 1525 1526 1528 1531 1534 1536 1537 1538 1539 1540 1540 1541 1541 1540 1540 1540 1539 1538 1536 1534 1531 1529 1527 1526 1525 1524 1523 1522 1520 1518 1516 1513 1510 1508 1505 1501 1499 1496
1510 1512 1516 1520 1524 1525 1526 1528 1532 1535 1536 1538 1539 1540 1540 1541 1541 1542 1541 1541 1541 1541 1539 1537 1535 1533 1531 1529 1528 1526 1525 1524 1523 1521 1519 1516 1514 1512 1508 1505 1502 1498 1495
1510 1514 1517 1521 1523 1525 1527 1530 1532 1534 1537 1539 1540 1541 1542 1542 1542 1542 1543 1543 1542 1541 1541 1539 1538 1536 1534 1532 1530 1528 1528 1526 1524 1522 1521 1518 1516 1514 1510 1507 1504 1500 1497
1511 1514 1517 1520 1523 1525 1528 1530 1532 1535 1538 1540 1541 1543 1544 1544 1544 1544 1544 1544 1544 1543 1542 1542 1540 1538 1536 1535 1533 1531 1529 1527 1526 1524 1522 1519 1517 1515 1513 1511 1507 1503 1499
1510 1513 1516 1519 1523 1526 1529 1531 1533 1536 1538 1540 1542 1543 1544 1545 1545 1545 1545 1545 1544 1543 1543 1542 1541 1539 1537 1536 1534 1533 1531 1529 1527 1525 1523 1521 1519 1517 1515 1513 1510 1506 1503
1510 1514 1517 1520 1525 1529 1532 1534 1535 1537 1539 1540 1541 1543 1544 1545 1545 1545 1545 1545 1544 1544 1543 1542 1540 1539 1537 1535 1534 1534 1532 1530 1528 1526 1525 1523 1521 1520 1518 1515 1513 1510 1507
1512 1515 1517 1521 1526 1529 1531 1533 1535 1537 1538 1539 1540 1542 1543 1544 1544 1544 1544 1543 1543 1543 1543 1541 1540 1539 1537 1535 1534 1534 1533 1531 1529 1528 1526 1525 1523 1522 1520 1518 1516 1514 1511
1511 1515 1518 1522 1526 1529 1530 1532 1534 1536 1537 1538 1539 1541 1542 1543 1544 1544 1543 1543 1542 1542 1542 1540 1539 1539 1537 1536 1535 1534 1532 1530 1529 1528 1527 1526 1525 1524 1522 1521 1519 1517 1515
1510 1514 1517 1521 1525 1527 1529 1532 1534 1536 1536 1536 1537 1539 1541 1542 1543 1543 1543 1542 1542 1541 1541 1540 1539 1539 1538 1537 1535 1534 1531 1530 1529 1528 1528 1527 1527 1526 1524 1523 1521 1519 1518
1509 1513 1517 1521 1524 1527 1528 1530 1532 1533 1535 1535 1535 1537 1539 1540 1541 1541 1541 1541 1541 1540 1539 1537 1537 1537 1537 1536 1535 1533 1531 1529 1528 1528 1527 1527 1527 1526 1525 1524 1523 1522 1520
1507 1512 1516 1520 1522 1525 1526 1528 1530 1532 1533 1534 1535 1536 1537 1538 1539 1539 1540 1539 1539 1539 1538 1536 1536 1536 1536 1535 1534 1532 1530 1529 1528 1527 1527 1526 1525 1526 1525 1525 1524 1523 1522
1505 1509 1513 1517 1519 1521 1523 1526 1528 1530 1531 1532 1533 1534 1535 1535 1535 1537 1537 1538 1537 1537 1536 1535 1535 1535 1535 1534 1533 1531 1530 1529 1528 1526 1526 1525 1525 1525 1524 1524 1524 1524 1523
1503 1507 1511 1514 1517 1520 1522 1523 1526 1526 1528 1529 1531 1532 1533 1533 1533 1534 1534 1534 1535 1535 1535 1535 1534 1534 1533 1533 1532 1531 1529 1528 1527 1526 1526 1525 1525 1524 1524 1524 1523 1523 1523
1501 1505 1509 1513 1516 1518 1520 1521 1523 1524 1526 1527 1528 1530 1530 1531 1531 1531 1531 1531 1531 1532 1533 1533 1532 1532 1532 1531 1529 1528 1528 1527 1526 1525 1523 1523 1524 1523 1523 1523 1522 1523 1523
1499 1504 1507 1511 1513 1515 1518 1520 1520 1522 1524 1525 1526 1526 1527 1528 1528 1529 1529 1529 1529 1529 1530 1530 1529 1529 1529 1529 1528 1527 1527 1526 1524 1523 1522 1521 1521 1521 1521 1522 1521 1521 1521
1497 1500 1504 1506 1510 1513 1514 1516 1518 1519 1522 1524 1524 1525 1525 1526 1525 1526 1527 1527 1527 1528 1528 1529 1528 1528 1528 1527 1526 1525 1525 1524 1522 1520 1519 1519 1519 1519 1519 1519 1519 1519 1519
1494 1497 1502 1504 1507 1510 1512 1514 1516 1518 1520 1521 1522 1522 1523 1524 1523 1525 1525 1525 1525 1526 1527 1527 1526 1525 1524 1523 1523 1523 1522 1522 1521 1519 1517 1516 1516 1517 1517 1517 1517 1516 1516
1492 1496 1499 1502 1505 1508 1509 1512 1515 1516 1517 1517 1520 1521 1521 1522 1522 1523 1523 1523 1523 1523 1523 1524 1523 1522 1521 1520 1520 1520 1520 1519 1518 1517 1515 1514 1513 1514 1514 1514 1514 1514 1514